STARLINK-4715, 53801

Orbit data source: Space-Track

STARLINK-4715, 53801 is a payload satellite owned by SpaceX/Seattle (US) in LEO that was launched on Sun, 11 Sep 2022 UTC via an FALCON 9 launch vehicle from the Air Force Eastern Test Range (AFETR). Payload-class satellites include a variety of spacecraft equipped with specific instruments for various scientific and technological missions. These include communications satellites like Starlink; space stations such as the ISS; scientific satellites like the Hubble; Earth observation satellites from companies like Planet Labs, Umbra, and HawkEye 360; GPS; miniature CubeSats for education and research; and military/defense satellites.

Loading next visibility...
Identifier
53801, 2022-111AE
Orbit
LEO
Country
Flag of USUS
Related business
Manufacturer
SpaceX/Seattle
Mission
Operational Commercial Communications
Bus & Motor
STARLINK, Unknown motor
Mass
305 kg wet, ~290 kg dry
Launch date (UTC)
2022-09-11 (3 years ago)
Launch vehicle
FALCON 9
Launch site
Air Force Eastern Test Range (AFETR)
Object type
Payload
Rocket body
Debris
Shape & HBR
Box + 1 Pan, 10.1 m
Radar Cross Section
13.562 m², Large (>1 m²)

Expand to show TLE details & history
Last TLE update: 1 day ago

TLE from 1 day ago
0 STARLINK-4715
1 53801U 22111AE  25308.85166384 -.00000552  00000-0 -16587-4 0  9998
2 53801  53.2147 104.2887 0001535  93.0656 267.0511 15.08835112174978
Epoch: 2025-11-04T20:26Z
TLE epoch observation values (Epoch: 2025-11-04T20:26:23.755Z)
Latitude
-0.0001°
Longitude
113.3569°
Altitude
540.71 km
Speed
7.593 km/s
True Right ascension
06h 57m 09s
True Declination
0° 00' 00"
Sunlit
Object was in full shadow at epoch
Visualization orbit readout
Latitude
Unknown
Longitude
Unknown
Altitude
Unknown
Speed
Unknown
Apparent Right ascension
Unknown
Apparent Declination
Unknown
Sunlit
N/A
Visualization observer readout
Local Sidereal Time
17:19:17
Azimuth
Unknown
Elevation
Unknown
Doppler factor
Unknown
Orbital elements
Apogee altitude
541.066 km
Perigee altitude
538.942 km
Semi-major axis
6,918.141 km
Eccentricity
0.00015
Inclination
53.2147°
RAAN
104.2887°
Arg. of periapsis
93.0656°
True anomaly
267.03353°
Mean anomaly
267.0511°
Eccentric anomaly
267.04232°
Mean motion
3.77189 °/min
Orbital period
95.44 mins
BSTAR
-0.000016587
Loading maneuver chart data...
Computing Atmospheric mass density...
Loading historical data...
Loading historical data...
Loading historical data...
Loading historical data...
Loading historical data...
Loading historical data...
Loading historical data...

Documentation

Showing up to 5 results
|